Veisiejai

Lithuania     54˚05′49″N   23˚42′20″E
temp.,
°C
wind,
m/s
gust,
m/s
humid.,
%
clouds,
%
prec.,
mm/h
press.,
hPa
HPBL,
m
1 december, tue
tue123:00ssw4881100 0.1 1024509
02:00−1˚ssw399398 0.1 1024393
05:00−2˚ssw369381 0.0 1024326
08:00−2˚sse388674 0.0 1026305
11:00−1˚sse47720 0.0 1026450
14:00sse47730 0.0 1027555
17:00−2˚se37870 0.0 1028308
20:00−3˚se37850 0.0 1029320
2 december, wed
wed223:00−3˚se36840 0.0 1030268
02:00−4˚se25840 0.0 1031242
05:00−4˚se35850 0.0 1030247
08:00−4˚ese26880 0.0 1030223
11:00−3˚se35770 0.0 1029280
14:00−1˚ese24720 0.0 1028344
17:00−3˚ese36880 0.0 1026250
20:00−4˚se38947 0.0 1025292
3 december, thu
thu323:00−3˚se379379 0.0 1025315
02:00−4˚se379471 0.0 1023316
05:00−2˚se388991 0.0 1022590
08:00−2˚se489292 0.1 1021506
11:00sse51086100 0.1 1020710
14:00sse5981100 0.1 1018765
17:00se5108393 0.0 1017747
20:00se6128696 0.0 1017674
4 december, fri
fri423:00−1˚se61284100 0.0 1016669
02:00se61483100 0.0 1014657
05:00se61585100 0.0 1013627
08:00−1˚se71488100 0.0 1012633
11:00+3˚se71589100 0.0 1012792
14:00+4˚se61489100 0.0 1011908
17:00+4˚se71686100 0.0 1010857
20:00+4˚se81785100 0.0 1010793
5 december, sat
sat523:00+4˚se8178797 0.0 1010766
02:00+4˚se8168999 0.0 1010704
05:00+5˚se7159099 0.0 1010618
08:00+5˚se61592100 0.4 1011652
11:00+5˚se71489100 0.0 1012628
14:00+6˚se71487100 0.0 1012730
17:00+6˚se71489100 0.0 1012650
20:00+6˚se61490100 0.0 1012725